Home   Weather   Waidhofen an der Thaya   Past weeks

Flag for Austria Past Weather in Waidhofen an der Thaya, Lower Austria, Austria — Yesterday and Last 2 Weeks

Now
40 °F

Fog.


Feels Like: 40 °F
Forecast: 35 / 51 °F
Wind: 2 mph from Northwest

Location: Retz

Current Time: Apr 28, 2017 at 4:30:56 pm

Latest Report: Apr 28, 2017 at 3:00 pm


Visibility: N/A

Pressure: 29.82 "Hg (28.02 "Hg at 506m altitude)

Humidity: 93%

Dew Point: 38 °F

Location of Waidhofen an der ThayaLocation

Past Weather in Waidhofen an der Thaya — Graph

°F

Waidhofen an der Thaya Temperature Yesterday

Maximum temperature yesterday: 45 °F (at 3:00 pm)
Minimum temperature yesterday: 39 °F (at 6:00 am)
Average temperature yesterday: 42 °F

High & Low Weather Summary for the Past Weeks

 TemperatureHumidityPressure
High64 °F (Apr 25, 6:00 pm)98% (Apr 27, 9:00 pm)30.51 "Hg (Apr 27, 9:00 pm)
Low34 °F (Apr 20, 6:00 am)37% (Apr 24, 6:00 pm)29.67 "Hg (Apr 25, 7:00 pm)
Average45 °F70%30.03 "Hg
* Reported Apr 13 2:00 pm — Apr 28 2:00 pm, Waidhofen an der Thaya, Weather by CustomWeather, © 2017

Note: Actual official high and low records may vary slightly from our data, if they occured in-between our weather recording intervals... More about our weather records

Advertising

Waidhofen an der Thaya Weather History for the Previous 24 Hours

Scroll right to see more
 ConditionsComfort  
Time TempWeatherWind HumidityBarometerVisibility
2:00 pm
Fri, Apr 28
40 °FOvercast.3 mph92%29.82 "Hg14 mi
1:00 pm40 °FQuite cool.2 mph91%29.82 "HgN/A
12:00 pm38 °FChilly.5 mph93%29.83 "HgN/A
11:00 am40 °FChilly.5 mph87%29.82 "HgN/A
10:00 am39 °FChilly.3 mph89%29.81 "HgN/A
9:00 am39 °FChilly.5 mph90%29.80 "HgN/A
8:00 am38 °FOvercast.3 mph93%29.81 "Hg14 mi
7:00 am37 °FOvercast.5 mph94%29.82 "Hg14 mi
6:00 am36 °FChilly.6 mph96%29.80 "HgN/A
5:00 am37 °FChilly.5 mph97%29.82 "HgN/A
4:00 am38 °FSprinkles. Overcast.3 mph96%29.83 "HgN/A
3:00 am39 °FChilly.3 mph94%29.82 "HgN/A
2:00 am40 °FChilly.5 mph95%29.86 "HgN/A
1:00 am40 °FSprinkles. Overcast.3 mph94%29.88 "HgN/A
12:00 am41 °FFog.3 mph97%29.89 "HgN/A
11:00 pm
Thu, Apr 27
42 °FQuite cool.3 mph97%29.92 "HgN/A
10:00 pm42 °FFog.2 mph98%29.94 "HgN/A
9:00 pm42 °FFog.1 mph98%29.95 "HgN/A
8:00 pm42 °FLight rain. Overcast.3 mph97%29.93 "Hg4 mi
7:00 pm43 °FFog.2 mph95%29.94 "HgN/A
6:00 pm43 °FFog.2 mph92%29.96 "HgN/A
5:00 pm44 °FFog.2 mph85%29.95 "HgN/A
4:00 pm45 °FQuite cool.3 mph84%29.95 "HgN/A
Weather by CustomWeather, © 2017

See weather overviewHow to use our weather pages